Showing default

COSMOS 447, 5550

Orbit data source: Space-Track

COSMOS 447, 5550 is a payload satellite owned by OKB-10 (CIS) in LEO that was launched on Wed, 13 Oct 1971 UTC via a KOSMOS 11K65M launch vehicle from the Plesetsk Missile And Space Complex (PKMTR). Payload-class satellites include a variety of spacecraft equipped with specific instruments for various scientific and technological missions. These include communications satellites like Starlink; space stations such as the ISS; scientific satellites like the Hubble; Earth observation satellites from companies like Planet Labs, Umbra, and HawkEye 360; GPS; miniature CubeSats for education and research; and military/defense satellites.

Loading next visibility...
Identifier
5550, 1971-086D
Orbit
LEO
Country
Flag of CISCIS
Related business
Manufacturer
OKB-10
Mission
Spacecraft
Bus & Motor
STRELA-1 11F625, Unknown motor
Mass
60 kg wet, 60 kg dry
Launch date (UTC)
1971-10-13 (55 years ago)
Launch vehicle
KOSMOS 11K65M
Launch site
Plesetsk Missile And Space Complex (PKMTR)
Object type
Payload
Rocket body
Debris
Shape & HBR
Unknown
Radar Cross Section
Medium (>0.1 m² and <1 m²)

Expand to show TLE details & history
Last TLE update: 2 days ago

TLE from 2 days ago
0 COSMOS 447
1  5550U 71086D   26171.40674580  .00000001  00000-0  11121-3 0  9998
2  5550  74.0296 304.7534 0066355 318.3357  97.1723 12.50623564496604
Epoch: 2026-06-20T09:45Z
TLE epoch observation values (Epoch: 2026-06-20T09:45:42.837Z)
Latitude
53.18°
Longitude
-87.9384°
Altitude
1,477.007 km
Speed
7.127 km/s
True Right ascension
21h 48m 26s
True Declination
53° 01' 48"
Sunlit
Object was in daylight at epoch
Visualization orbit readout
Latitude
Unknown
Longitude
Unknown
Altitude
Unknown
Speed
Unknown
Apparent Right ascension
Unknown
Apparent Declination
Unknown
Sunlit
N/A
Visualization observer readout
Local Sidereal Time
23:07:22
Azimuth
Unknown
Elevation
Unknown
Doppler factor
Unknown
Orbital elements
Apogee altitude
1,511.73 km
Perigee altitude
1,407.714 km
Semi-major axis
7,837.859 km
Eccentricity
0.00664
Inclination
74.0296°
RAAN
304.7534°
Arg. of periapsis
318.3357°
True anomaly
97.92592°
Mean anomaly
97.1723°
Eccentric anomaly
97.54919°
Mean motion
3.12786 °/min
Orbital period
115.09 mins
BSTAR
0.00011121
Loading maneuver chart data...
Computing Atmospheric mass density...
Loading historical data...
Loading historical data...
Loading historical data...
Loading historical data...
Loading historical data...
Loading historical data...
Loading historical data...

Documentation

Showing up to 5 results
|